Home   Weather   France   Nancy   Past weeks
Flag for France

Past Weather in Nancy, Grand-Est, France — Yesterday and Last 2 Weeks

Currently: 32 °F. Overcast. (Weather station: Nancy / Ochey, France). See more current weather

Past Weather in Nancy — Graph

°F

Nancy Temperature Yesterday

Maximum temperature yesterday: 36 °F (at 12:30 pm)
Minimum temperature yesterday: 32 °F (at 2:00 am)
Average temperature yesterday: 34 °F

High & Low Weather Summary for the Past Weeks

 TemperatureHumidityPressure
High50 °F (Nov 14, 12:00 pm)100% (Nov 14, 6:00 am)30.51 "Hg (Nov 14, 6:00 am)
Low23 °F (Nov 25, 4:00 am)49% (Nov 23, 2:00 pm)29.15 "Hg (Nov 27, 2:00 am)
Average39 °F92%30.02 "Hg
* Reported Nov 14 6:00 am — Nov 29 6:00 am, Nancy. Weather by CustomWeather, © 2021

Note: Actual official high and low records may vary slightly from our data, if they occured in-between our weather recording intervals... More about our weather records

Nancy Weather History for the Previous 24 Hours

Scroll right to see more
 ConditionsComfort  
Time TempWeatherWind HumidityBarometerVisibility
6:00 am
Mon, Nov 29
32 °FOvercast.8 mph93%29.71 "HgN/A
5:30 am32 °FOvercast.7 mph100%29.68 "HgN/A
5:00 am34 °FOvercast.6 mph93%29.68 "HgN/A
4:30 am34 °FMostly cloudy.10 mph93%29.65 "HgN/A
4:00 am34 °FPartly cloudy.9 mph93%29.65 "HgN/A
3:30 am34 °FMostly cloudy.9 mph100%29.65 "HgN/A
3:00 am34 °FLight rain. Low clouds.8 mph93%29.65 "Hg4 mi
2:30 am34 °FLow clouds.6 mph93%29.62 "Hg6 mi
2:00 am34 °FOvercast.8 mph93%29.62 "HgN/A
1:30 am34 °FLow clouds.8 mph100%29.59 "Hg4 mi
1:00 am34 °FFog.7 mph100%29.59 "Hg3 mi
12:30 am34 °FFog.7 mph100%29.59 "Hg3 mi
12:00 am34 °FFog.7 mph93%29.59 "Hg3 mi
11:30 pm
Sun, Nov 28
32 °FIce fog.7 mph100%29.56 "Hg3 mi
11:00 pm32 °FClear.8 mph100%29.56 "Hg4 mi
10:30 pm32 °FClear.6 mph93%29.56 "Hg4 mi
10:00 pm32 °FClear.5 mph100%29.56 "Hg5 mi
9:30 pm34 °FMostly cloudy.7 mph93%29.53 "Hg4 mi
9:00 pm34 °FOvercast.6 mph93%29.53 "HgN/A
8:30 pm34 °FMostly cloudy.6 mph93%29.53 "Hg6 mi
8:00 pm34 °FOvercast.6 mph93%29.53 "Hg6 mi
7:30 pm34 °FOvercast.7 mph100%29.50 "Hg6 mi
7:00 pm34 °FOvercast.6 mph100%29.50 "Hg6 mi
6:30 pm34 °FMostly cloudy.8 mph100%29.50 "Hg6 mi
6:00 pm34 °FPassing clouds.7 mph100%29.47 "Hg6 mi
5:30 pm34 °FDrizzle. Mostly cloudy.12 mph100%29.47 "Hg4 mi
5:00 pm36 °FLight rain. Overcast.7 mph93%29.47 "HgN/A
4:30 pm36 °FMostly cloudy.10 mph93%29.47 "HgN/A
4:00 pm34 °FLight rain. More clouds than sun.10 mph100%29.45 "HgN/A
3:30 pm34 °FLight rain. Broken clouds.10 mph93%29.45 "HgN/A
3:00 pm36 °FOvercast.9 mph93%29.45 "HgN/A
2:30 pm36 °FPartly sunny.10 mph93%29.45 "HgN/A
2:00 pm36 °FLow clouds.8 mph100%29.42 "Hg5 mi
1:30 pm36 °FMostly cloudy.8 mph100%29.42 "Hg5 mi
1:00 pm36 °FLow clouds.8 mph100%29.42 "Hg4 mi
12:30 pm36 °FLow clouds.7 mph100%29.42 "HgN/A
12:00 pm34 °FLow clouds.5 mph100%29.42 "HgN/A
11:30 am34 °FLight snow. Fog.6 mph100%29.42 "Hg2 mi
11:00 am34 °FDrizzle. Low clouds.5 mph100%29.42 "Hg4 mi
10:30 am34 °FFog.7 mph100%29.42 "Hg3 mi
10:00 am34 °FMostly cloudy.7 mph93%29.42 "Hg5 mi
9:30 am32 °FSnow. Ice fog.7 mph100%29.42 "Hg1 mi
9:00 am34 °FLight rain. Fog.7 mph93%29.42 "Hg2 mi
8:30 am32 °FLight snow. Ice fog.9 mph100%29.39 "Hg2 mi
8:00 am34 °FLight snow. Fog.8 mph93%29.39 "Hg2 mi
7:30 am34 °FLight snow. Fog.8 mph93%29.39 "Hg2 mi
7:00 am34 °FLight snow. Fog.7 mph93%29.39 "Hg2 mi
Weather by CustomWeather, © 2021

See weather overview